Powrót do katalogu

STARLINK-36312

AktywnyŁącznośćSSO
NORAD 67609·PAYLOAD·🇺🇸 United States

Wystrzelony Jan 29, 2026 z Vandenberg Space Force Base

Loading…

Następne Przeloty (najbliższe 24 godziny)

TLE

ŚwieżeSource: CelesTrak SupGP

Epoka: Sep 15, 2026, 03:30 UTC

1 67609C 26018W   26258.14631944  .00005515  00000+0  17122-3 0  2589
2 67609  97.2853 321.7127 0000882  80.8224 217.5755 15.33436427    10

Śledź STARLINK-36312 w czasie rzeczywistym z AllMySat

Download on the App Store